Châteaudun, France

17:01 CET le 20 février 2017 (GMT +0100)
Chateaudun Air Base | | Change Station

Alt. 417 ft 48.05 °N, 1.38 °E | Updated 31 minutes ago

Overcast
Couvert
54 ° F
Paraît 54 ° F
N
12
Vent Variable Vent de OSO

Aujourd'hui
Haut(e) -- | Bas -- ° F
--% Risque de précip.
Hier
Haut(e) -- | Bas -- ° F
Precip. -- pouce
Pression 30.21 pouce
Visibilité 6.2 Miles terrestres
Nuages Couvert 900 ft
Point de rosée 50 ° F
Humidité 88%
Précipitations 0.00 pouce
Profondeur de la couche neigeuse Non disponible.
7:52 AM 6:24 PM
Lune descendante, 33% visible
METAR LFOC 201530Z AUTO 25010KT 9999 OVC009 12/10 Q1023 TEMPO OVC003
Pression 30.21 pouce
Visibilité 6.2 Miles terrestres
Nuages Couvert 900 ft
Point de rosée 50 ° F
Humidité 88%
Précipitations 0.00 pouce
Profondeur de la couche neigeuse Non disponible.
7:52 AM 6:24 PM
Lune descendante, 33% visible
METAR LFOC 201530Z AUTO 25010KT 9999 OVC009 12/10 Q1023 TEMPO OVC003

Get Your Daily Forecast Email!

Thanks for signing up!

Be on the lookout for a verification email in your inbox.

You'll start receiving the daily forecast at 8 AM.

×

10-Day Weather Forecast

×

Almanac

Astronomie

Feb. 20, 2017 Lever Coucher
Temps réel
Crépuscule civil
Crépuscule nautique
Crépuscule astronomique
Lune
Durée de lumière visible
Longueur du jour
Tomorrow will be .
, % of the Moon is Illuminated

Extrêmes aujourd'hui

Country Highs Country Lows

Community

WunderPhotos

Upload Photos

1,962,540 Photos téléchargées !

WunderBlog® & News

Nearby

Qualité de l'air

  Qualité de l'air Indice de la qualité de l'air Polluant
Not available.

Épaisseur de neige

Station Depth Altitude

Activité sismique

Ville Distance Mag. Time & Date
Minimum magnitude displayed is 2.5.

Températures des eaux côtières

Lieu Température

Stations

Stations météo à proximité

Emplacement de la station Température Refroidissement éolien Point de rosée Humidité Vent Precip. Alt. Mise à jour Type